Regional Weather Roundup
Issued by NWS Newport/Morehead, NC

Current Version | Previous Version | Graphics & Text | Print | Product List | Glossary Off
Versions: 1 2 3 4 5 6 7 8 9 10 11 12 13 14 15 16 17 18 19 20 21 22 23 24 25 26 27 28 29 30 31 32 33 34 35 36 37 38 39 40 41 42 43 44 45 46 47 48 49 50

000
ASUS42 KMHX 221626
RWRMHX
WEATHER ROUNDUP FOR EASTERN NORTH CAROLINA
NATIONAL WEATHER SERVICE NEWPORT/MOREHEAD CITY NC
1200 PM EDT THU JUN 22 2017

NOTE: "FAIR" INDICATES FEW OR NO CLOUDS BELOW 12,000 FEET
WITH NO SIGNIFICANT WEATHER AND/OR OBSTRUCTIONS TO VISIBILITY

NCZ015>017-031-032-045>047-102-103-221700-
NORTH COAST

CITY           SKY/WX    TMP DP  RH WIND       PRES   REMARKS
EDENTON        CLOUDY    85  75  70 CALM      30.08S
ELIZABETH CITY PTSUNNY   84  76  76 SW10      30.06S
KITTY HAWK     CLOUDY    83  72  69 CALM      30.06S
MANTEO         MOSUNNY   83  72  69 NW5       30.08S

$$

NCZ045>047-081-094-103-104-221700-
CENTRAL COAST

CITY           SKY/WX    TMP DP  RH WIND       PRES   REMARKS
FRISCO         MOSUNNY   83  74  74 SW10      30.10R

$$

NCZ095-097-098-100-101-221700-
SOUTHERN COAST

CITY           SKY/WX    TMP DP  RH WIND       PRES   REMARKS
BEAUFORT       MOSUNNY   84  78  82 SW10      30.10
CEDAR ISLAND   NOT AVBL
JACKSONVILLE   PTSUNNY   86  75  69 SW8       30.10S
PINEY ISLAND   MOSUNNY  N/A N/A N/A W14       30.09S
WILMINGTON     MOSUNNY   85  74  69 W10       30.11S


$$

NCZ011>013-027>030-043-044-078>080-089-090>093-098-221700-
COASTAL PLAIN

CITY           SKY/WX    TMP DP  RH WIND       PRES   REMARKS
AHOSKIE          N/A     82  75  81 CALM      30.07F
CLINTON        CLOUDY    82  76  82 W6        30.12S
ELIZABETHTOWN  NOT AVBL
GOLDSBORO      PTSUNNY   84  79  84 SW9       30.09R
GREENVILLE     MOSUNNY   86  73  66 W7        30.10F HAZE
HAVELOCK       MOSUNNY   88  73  61 W9        30.10S
KENANSVILLE    CLOUDY    82  73  74 W8        30.12S
KINSTON        MOSUNNY   86  72  62 W7        30.11S
NEW BERN       CLOUDY    86  75  69 W7        30.10F
RICHLANDS      MOSUNNY   86  75  70 W7        30.11S
ROCKY MOUNT    PTSUNNY   84  74  71 W6        30.09S
WASHINGTON     MOSUNNY   85  74  71 SW9       30.09S
WHITEVILLE     CLOUDY    83  75  77 W3        30.12S

$$

AMZ130-135-150-152-154-156-158-170-250-252-270-ANZ085-086-088-633-658-670-221700-
MARINE OBSERVATIONS

STATION/POSITION TIME  TEMP    WIND        PRES    WAVE   SWELL
                       AIR SEA DIR/SP/G            HT/PER HT/PER
                 (UTC) (F)     (DEG/KT/KT) (MB)    (FT/S) (FT/S)
CHESAPEAKE LIGHT NOT AVBL
64 E VA BEACH    1550   72 71  230/  8/  8 1018.2    2/ 7   2/ 7
DUCK             1600   80 62  240/ 11/ 14 1017.7
2 E DUCK         NOT AVBL
OREGON INLET     1600   80 78  230/  7/  8 1018.4
13E OREGON INLT  1548      72                N/A     2/ 7   2/ 7
HATTERAS CG      1600   81 78  260/  7/ 10 1019.0
DIAMOND BUOY     1550   79 79  240/ 10/ 12 1019.3    2/ 7   2/ 7
CAPE LOOKOUT     1600   80     250/  9/ 10 1019.1
BEAUFORT LAB     1600   82 78  210/  5/ 10 1018.7
30 SE NEW RVR IN 1608   80 81  250/  6/ 10 1020.0
30 SE NEW RVR IN 1613      81                N/A     3/ 7
27 SE WRIGHTSVLE 1608   79 80  240/  6/ 10 1019.5
5 SE WRIGHTSVLE  1608   80 79  210/  6/  8 1019.7
225 S CAPE HAT   1550   81 82  210/ 12/ 14 1021.3    4/ 8   3/ 8
41 SE CHARLESTON 1610   81 81  190/  8/ 10 1020.0

$$




USA.gov is the U.S. government's official web portal to all federal, state and local government web resources and services.